Year,Month,Day,Hour,Minute,Value (Times are PST for barometer in hPa)
2006,11,13,00,00,985.00
2006,11,13,00,01,985.00
2006,11,13,00,02,985.00
2006,11,13,00,03,985.00
2006,11,13,00,04,985.00
2006,11,13,00,05,985.00
2006,11,13,00,06,985.00
2006,11,13,00,07,985.00
2006,11,13,00,08,985.00
2006,11,13,00,09,985.00
2006,11,13,00,10,985.00
2006,11,13,00,11,985.00
2006,11,13,00,12,985.00
2006,11,13,00,13,985.00
2006,11,13,00,14,985.00
2006,11,13,00,15,985.68
2006,11,13,00,16,985.68
2006,11,13,00,17,985.68
2006,11,13,00,18,985.68
2006,11,13,00,19,985.68
2006,11,13,00,20,985.68
2006,11,13,00,21,985.68
2006,11,13,00,22,985.68
2006,11,13,00,23,985.68
2006,11,13,00,24,985.68
2006,11,13,00,25,985.68
2006,11,13,00,26,985.68
2006,11,13,00,27,985.68
2006,11,13,00,28,985.68
2006,11,13,00,29,985.68
2006,11,13,00,30,985.74
2006,11,13,00,31,985.74
2006,11,13,00,32,985.74
2006,11,13,00,33,985.74
2006,11,13,00,34,985.74
2006,11,13,00,35,985.74
2006,11,13,00,36,985.74
2006,11,13,00,37,985.74
2006,11,13,00,38,985.74
2006,11,13,00,39,985.74
2006,11,13,00,40,985.74
2006,11,13,00,41,985.74
2006,11,13,00,42,985.74
2006,11,13,00,43,985.74
2006,11,13,00,44,985.74
2006,11,13,00,45,986.59
2006,11,13,00,46,986.59
2006,11,13,00,47,986.59
2006,11,13,00,48,986.59
2006,11,13,00,49,986.59
2006,11,13,00,50,986.59
2006,11,13,00,51,986.59
2006,11,13,00,52,986.59
2006,11,13,00,53,986.59
2006,11,13,00,54,986.59
2006,11,13,00,55,986.59
2006,11,13,00,56,986.59
2006,11,13,00,57,986.59
2006,11,13,00,58,986.59
2006,11,13,00,59,986.59
2006,11,13,01,00,987.17
2006,11,13,01,01,987.17
2006,11,13,01,02,987.17
2006,11,13,01,03,987.17
2006,11,13,01,04,987.17
2006,11,13,01,05,987.17
2006,11,13,01,06,987.17
2006,11,13,01,07,987.17
2006,11,13,01,08,987.17
2006,11,13,01,09,987.17
2006,11,13,01,10,987.17
2006,11,13,01,11,987.17
2006,11,13,01,12,987.17
2006,11,13,01,13,987.17
2006,11,13,01,14,987.17
2006,11,13,01,15,988.28
2006,11,13,01,16,988.28
2006,11,13,01,17,988.28
2006,11,13,01,18,988.28
2006,11,13,01,19,988.28
2006,11,13,01,20,988.28
2006,11,13,01,21,988.28
2006,11,13,01,22,988.28
2006,11,13,01,23,988.28
2006,11,13,01,24,988.28
2006,11,13,01,25,988.28
2006,11,13,01,26,988.28
2006,11,13,01,27,988.28
2006,11,13,01,28,988.28
2006,11,13,01,29,988.28
2006,11,13,01,30,988.89
2006,11,13,01,31,988.89
2006,11,13,01,32,988.89
2006,11,13,01,33,988.89
2006,11,13,01,34,988.89
2006,11,13,01,35,988.89
2006,11,13,01,36,988.89
2006,11,13,01,37,988.89
2006,11,13,01,38,988.89
2006,11,13,01,39,988.89
2006,11,13,01,40,988.89
2006,11,13,01,41,988.89
2006,11,13,01,42,988.89
2006,11,13,01,43,988.89
2006,11,13,01,44,988.89
2006,11,13,01,45,989.67
2006,11,13,01,46,989.67
2006,11,13,01,47,989.67
2006,11,13,01,48,989.67
2006,11,13,01,49,989.67
2006,11,13,01,50,989.67
2006,11,13,01,51,989.67
2006,11,13,01,52,989.67
2006,11,13,01,53,989.67
2006,11,13,01,54,989.67
2006,11,13,01,55,989.67
2006,11,13,01,56,989.67
2006,11,13,01,57,989.67
2006,11,13,01,58,989.67
2006,11,13,01,59,989.67
2006,11,13,02,00,989.81
2006,11,13,02,01,989.81
2006,11,13,02,02,989.81
2006,11,13,02,03,989.81
2006,11,13,02,04,989.81
2006,11,13,02,05,989.81
2006,11,13,02,06,989.81
2006,11,13,02,07,989.81
2006,11,13,02,08,989.81
2006,11,13,02,09,989.81
2006,11,13,02,10,989.81
2006,11,13,02,11,989.81
2006,11,13,02,12,989.81
2006,11,13,02,13,989.81
2006,11,13,02,14,989.81
2006,11,13,02,15,990.11
2006,11,13,02,16,990.11
2006,11,13,02,17,990.11
2006,11,13,02,18,990.11
2006,11,13,02,19,990.11
2006,11,13,02,20,990.11
2006,11,13,02,21,990.11
2006,11,13,02,22,990.11
2006,11,13,02,23,990.11
2006,11,13,02,24,990.11
2006,11,13,02,25,990.11
2006,11,13,02,26,990.11
2006,11,13,02,27,990.11
2006,11,13,02,28,990.11
2006,11,13,02,29,990.11
2006,11,13,02,30,990.04
2006,11,13,02,31,990.04
2006,11,13,02,32,990.04
2006,11,13,02,33,990.04
2006,11,13,02,34,990.04
2006,11,13,02,35,990.04
2006,11,13,02,36,990.04
2006,11,13,02,37,990.04
2006,11,13,02,38,990.04
2006,11,13,02,39,990.04
2006,11,13,02,40,990.04
2006,11,13,02,41,990.04
2006,11,13,02,42,990.04
2006,11,13,02,43,990.04
2006,11,13,02,44,990.04
2006,11,13,02,45,990.15
2006,11,13,02,46,990.15
2006,11,13,02,47,990.15
2006,11,13,02,48,990.15
2006,11,13,02,49,990.15
2006,11,13,02,50,990.15
2006,11,13,02,51,990.15
2006,11,13,02,52,990.15
2006,11,13,02,53,990.15
2006,11,13,02,54,990.15
2006,11,13,02,55,990.15
2006,11,13,02,56,990.15
2006,11,13,02,57,990.15
2006,11,13,02,58,990.15
2006,11,13,02,59,990.15
2006,11,13,03,00,990.42
2006,11,13,03,01,990.42
2006,11,13,03,02,990.42
2006,11,13,03,03,990.42
2006,11,13,03,04,990.42
2006,11,13,03,05,990.42
2006,11,13,03,06,990.42
2006,11,13,03,07,990.42
2006,11,13,03,08,990.42
2006,11,13,03,09,990.42
2006,11,13,03,10,990.42
2006,11,13,03,11,990.42
2006,11,13,03,12,990.42
2006,11,13,03,13,990.42
2006,11,13,03,14,990.42
2006,11,13,03,15,990.79
2006,11,13,03,16,990.79
2006,11,13,03,17,990.79
2006,11,13,03,18,990.79
2006,11,13,03,19,990.79
2006,11,13,03,20,990.79
2006,11,13,03,21,990.79
2006,11,13,03,22,990.79
2006,11,13,03,23,990.79
2006,11,13,03,24,990.79
2006,11,13,03,25,990.79
2006,11,13,03,26,990.79
2006,11,13,03,27,990.79
2006,11,13,03,28,990.79
2006,11,13,03,29,990.79
2006,11,13,03,30,991.47
2006,11,13,03,31,991.47
2006,11,13,03,32,991.47
2006,11,13,03,33,991.47
2006,11,13,03,34,991.47
2006,11,13,03,35,991.47
2006,11,13,03,36,991.47
2006,11,13,03,37,991.47
2006,11,13,03,38,991.47
2006,11,13,03,39,991.47
2006,11,13,03,40,991.47
2006,11,13,03,41,991.47
2006,11,13,03,42,991.47
2006,11,13,03,43,991.47
2006,11,13,03,44,991.47
2006,11,13,03,45,991.98
2006,11,13,03,46,991.98
2006,11,13,03,47,991.98
2006,11,13,03,48,991.98
2006,11,13,03,49,991.98
2006,11,13,03,50,991.98
2006,11,13,03,51,991.98
2006,11,13,03,52,991.98
2006,11,13,03,53,991.98
2006,11,13,03,54,991.98
2006,11,13,03,55,991.98
2006,11,13,03,56,991.98
2006,11,13,03,57,991.98
2006,11,13,03,58,991.98
2006,11,13,03,59,991.98
2006,11,13,04,00,992.99
2006,11,13,04,01,992.99
2006,11,13,04,02,992.99
2006,11,13,04,03,992.99
2006,11,13,04,04,992.99
2006,11,13,04,05,992.99
2006,11,13,04,06,992.99
2006,11,13,04,07,992.99
2006,11,13,04,08,992.99
2006,11,13,04,09,992.99
2006,11,13,04,10,992.99
2006,11,13,04,11,992.99
2006,11,13,04,12,992.99
2006,11,13,04,13,992.99
2006,11,13,04,14,992.99
2006,11,13,04,15,993.06
2006,11,13,04,16,993.06
2006,11,13,04,17,993.06
2006,11,13,04,18,993.06
2006,11,13,04,19,993.06
2006,11,13,04,20,993.06
2006,11,13,04,21,993.06
2006,11,13,04,22,993.06
2006,11,13,04,23,993.06
2006,11,13,04,24,993.06
2006,11,13,04,25,993.06
2006,11,13,04,26,993.06
2006,11,13,04,27,993.06
2006,11,13,04,28,993.06
2006,11,13,04,29,993.06
2006,11,13,04,30,993.80
2006,11,13,04,31,993.80
2006,11,13,04,32,993.80
2006,11,13,04,33,993.80
2006,11,13,04,34,993.80
2006,11,13,04,35,993.80
2006,11,13,04,36,993.80
2006,11,13,04,37,993.80
2006,11,13,04,38,993.80
2006,11,13,04,39,993.80
2006,11,13,04,40,993.80
2006,11,13,04,41,993.80
2006,11,13,04,42,993.80
2006,11,13,04,43,993.80
2006,11,13,04,44,993.80
2006,11,13,04,45,994.28
2006,11,13,04,46,994.28
2006,11,13,04,47,994.28
2006,11,13,04,48,994.28
2006,11,13,04,49,994.28
2006,11,13,04,50,994.28
2006,11,13,04,51,994.28
2006,11,13,04,52,994.28
2006,11,13,04,53,994.28
2006,11,13,04,54,994.28
2006,11,13,04,55,994.28
2006,11,13,04,56,994.28
2006,11,13,04,57,994.28
2006,11,13,04,58,994.28
2006,11,13,04,59,994.28
2006,11,13,05,00,994.58
2006,11,13,05,01,994.58
2006,11,13,05,02,994.58
2006,11,13,05,03,994.58
2006,11,13,05,04,994.58
2006,11,13,05,05,994.58
2006,11,13,05,06,994.58
2006,11,13,05,07,994.58
2006,11,13,05,08,994.58
2006,11,13,05,09,994.58
2006,11,13,05,10,994.58
2006,11,13,05,11,994.58
2006,11,13,05,12,994.58
2006,11,13,05,13,994.58
2006,11,13,05,14,994.58
2006,11,13,05,15,995.23
2006,11,13,05,16,995.23
2006,11,13,05,17,995.23
2006,11,13,05,18,995.23
2006,11,13,05,19,995.23
2006,11,13,05,20,995.23
2006,11,13,05,21,995.23
2006,11,13,05,22,995.23
2006,11,13,05,23,995.23
2006,11,13,05,24,995.23
2006,11,13,05,25,995.23
2006,11,13,05,26,995.23
2006,11,13,05,27,995.23
2006,11,13,05,28,995.23
2006,11,13,05,29,995.23
2006,11,13,05,30,995.29
2006,11,13,05,31,995.29
2006,11,13,05,32,995.29
2006,11,13,05,33,995.29
2006,11,13,05,34,995.29
2006,11,13,05,35,995.29
2006,11,13,05,36,995.29
2006,11,13,05,37,995.29
2006,11,13,05,38,995.29
2006,11,13,05,39,995.29
2006,11,13,05,40,995.29
2006,11,13,05,41,995.29
2006,11,13,05,42,995.29
2006,11,13,05,43,995.29
2006,11,13,05,44,995.29
2006,11,13,05,45,995.77
2006,11,13,05,46,995.77
2006,11,13,05,47,995.77
2006,11,13,05,48,995.77
2006,11,13,05,49,995.77
2006,11,13,05,50,995.77
2006,11,13,05,51,995.77
2006,11,13,05,52,995.77
2006,11,13,05,53,995.77
2006,11,13,05,54,995.77
2006,11,13,05,55,995.77
2006,11,13,05,56,995.77
2006,11,13,05,57,995.77
2006,11,13,05,58,995.77
2006,11,13,05,59,995.77
2006,11,13,06,00,995.87
2006,11,13,06,01,995.87
2006,11,13,06,02,995.87
2006,11,13,06,03,995.87
2006,11,13,06,04,995.87
2006,11,13,06,05,995.87
2006,11,13,06,06,995.87
2006,11,13,06,07,995.87
2006,11,13,06,08,995.87
2006,11,13,06,09,995.87
2006,11,13,06,10,995.87
2006,11,13,06,11,995.87
2006,11,13,06,12,995.87
2006,11,13,06,13,995.87
2006,11,13,06,14,995.87
2006,11,13,06,15,996.14
2006,11,13,06,16,996.14
2006,11,13,06,17,996.14
2006,11,13,06,18,996.14
2006,11,13,06,19,996.14
2006,11,13,06,20,996.14
2006,11,13,06,21,996.14
2006,11,13,06,22,996.14
2006,11,13,06,23,996.14
2006,11,13,06,24,996.14
2006,11,13,06,25,996.14
2006,11,13,06,26,996.14
2006,11,13,06,27,996.14
2006,11,13,06,28,996.14
2006,11,13,06,29,996.14
2006,11,13,06,30,996.28
2006,11,13,06,31,996.28
2006,11,13,06,32,996.28
2006,11,13,06,33,996.28
2006,11,13,06,34,996.28
2006,11,13,06,35,996.28
2006,11,13,06,36,996.28
2006,11,13,06,37,996.28
2006,11,13,06,38,996.28
2006,11,13,06,39,996.28
2006,11,13,06,40,996.28
2006,11,13,06,41,996.28
2006,11,13,06,42,996.28
2006,11,13,06,43,996.28
2006,11,13,06,44,996.28
2006,11,13,06,45,996.75
2006,11,13,06,46,996.75
2006,11,13,06,47,996.75
2006,11,13,06,48,996.75
2006,11,13,06,49,996.75
2006,11,13,06,50,996.75
2006,11,13,06,51,996.75
2006,11,13,06,52,996.75
2006,11,13,06,53,996.75
2006,11,13,06,54,996.75
2006,11,13,06,55,996.75
2006,11,13,06,56,996.75
2006,11,13,06,57,996.75
2006,11,13,06,58,996.75
2006,11,13,06,59,996.75
2006,11,13,07,00,996.75
2006,11,13,07,01,996.75
2006,11,13,07,02,996.75
2006,11,13,07,03,996.75
2006,11,13,07,04,996.75
2006,11,13,07,05,996.75
2006,11,13,07,06,996.75
2006,11,13,07,07,996.75
2006,11,13,07,08,996.75
2006,11,13,07,09,996.75
2006,11,13,07,10,996.75
2006,11,13,07,11,996.75
2006,11,13,07,12,996.75
2006,11,13,07,13,996.75
2006,11,13,07,14,996.75
2006,11,13,07,15,996.78
2006,11,13,07,16,996.78
2006,11,13,07,17,996.78
2006,11,13,07,18,996.78
2006,11,13,07,19,996.78
2006,11,13,07,20,996.78
2006,11,13,07,21,996.78
2006,11,13,07,22,996.78
2006,11,13,07,23,996.78
2006,11,13,07,24,996.78
2006,11,13,07,25,996.78
2006,11,13,07,26,996.78
2006,11,13,07,27,996.78
2006,11,13,07,28,996.78
2006,11,13,07,29,996.78
2006,11,13,07,30,997.16
2006,11,13,07,31,997.16
2006,11,13,07,32,997.16
2006,11,13,07,33,997.16
2006,11,13,07,34,997.16
2006,11,13,07,35,997.16
2006,11,13,07,36,997.16
2006,11,13,07,37,997.16
2006,11,13,07,38,997.16
2006,11,13,07,39,997.16
2006,11,13,07,40,997.16
2006,11,13,07,41,997.16
2006,11,13,07,42,997.16
2006,11,13,07,43,997.16
2006,11,13,07,44,997.16
2006,11,13,07,45,997.29
2006,11,13,07,46,997.29
2006,11,13,07,47,997.29
2006,11,13,07,48,997.29
2006,11,13,07,49,997.29
2006,11,13,07,50,997.29
2006,11,13,07,51,997.29
2006,11,13,07,52,997.29
2006,11,13,07,53,997.29
2006,11,13,07,54,997.29
2006,11,13,07,55,997.29
2006,11,13,07,56,997.29
2006,11,13,07,57,997.29
2006,11,13,07,58,997.29
2006,11,13,07,59,997.29
2006,11,13,08,00,997.56
2006,11,13,08,01,997.56
2006,11,13,08,02,997.56
2006,11,13,08,03,997.56
2006,11,13,08,04,997.56
2006,11,13,08,05,997.56
2006,11,13,08,06,997.56
2006,11,13,08,07,997.56
2006,11,13,08,08,997.56
2006,11,13,08,09,997.56
2006,11,13,08,10,997.56
2006,11,13,08,11,997.56
2006,11,13,08,12,997.56
2006,11,13,08,13,997.56
2006,11,13,08,14,997.56
2006,11,13,08,15,998.17
2006,11,13,08,16,998.17
2006,11,13,08,17,998.17
2006,11,13,08,18,998.17
2006,11,13,08,19,998.17
2006,11,13,08,20,998.17
2006,11,13,08,21,998.17
2006,11,13,08,22,998.17
2006,11,13,08,23,998.17
2006,11,13,08,24,998.17
2006,11,13,08,25,998.17
2006,11,13,08,26,998.17
2006,11,13,08,27,998.17
2006,11,13,08,28,998.17
2006,11,13,08,29,998.17
2006,11,13,08,30,998.31
2006,11,13,08,31,998.31
2006,11,13,08,32,998.31
2006,11,13,08,33,998.31
2006,11,13,08,34,998.31
2006,11,13,08,35,998.31
2006,11,13,08,36,998.31
2006,11,13,08,37,998.31
2006,11,13,08,38,998.31
2006,11,13,08,39,998.31
2006,11,13,08,40,998.31
2006,11,13,08,41,998.31
2006,11,13,08,42,998.31
2006,11,13,08,43,998.31
2006,11,13,08,44,998.31
2006,11,13,08,45,998.54
2006,11,13,08,46,998.54
2006,11,13,08,47,998.54
2006,11,13,08,48,998.54
2006,11,13,08,49,998.54
2006,11,13,08,50,998.54
2006,11,13,08,51,998.54
2006,11,13,08,52,998.54
2006,11,13,08,53,998.54
2006,11,13,08,54,998.54
2006,11,13,08,55,998.54
2006,11,13,08,56,998.54
2006,11,13,08,57,998.54
2006,11,13,08,58,998.54
2006,11,13,08,59,998.54
2006,11,13,09,00,998.97
2006,11,13,09,01,998.99
2006,11,13,09,02,998.99
2006,11,13,09,03,998.99
2006,11,13,09,04,998.99
2006,11,13,09,05,998.99
2006,11,13,09,06,998.99
2006,11,13,09,07,998.99
2006,11,13,09,08,998.99
2006,11,13,09,09,998.99
2006,11,13,09,10,998.99
2006,11,13,09,11,998.99
2006,11,13,09,12,998.99
2006,11,13,09,13,998.99
2006,11,13,09,14,998.99
2006,11,13,09,15,999.32
2006,11,13,09,16,999.32
2006,11,13,09,17,999.32
2006,11,13,09,18,999.32
2006,11,13,09,19,999.32
2006,11,13,09,20,999.32
2006,11,13,09,21,999.32
2006,11,13,09,22,999.32
2006,11,13,09,23,999.32
2006,11,13,09,24,999.32
2006,11,13,09,25,999.32
2006,11,13,09,26,999.32
2006,11,13,09,27,999.32
2006,11,13,09,28,999.32
2006,11,13,09,29,999.32
2006,11,13,09,30,998.99
2006,11,13,09,31,998.99
2006,11,13,09,32,998.99
2006,11,13,09,33,998.99
2006,11,13,09,34,998.99
2006,11,13,09,35,998.99
2006,11,13,09,36,998.99
2006,11,13,09,37,998.99
2006,11,13,09,38,998.99
2006,11,13,09,39,998.99
2006,11,13,09,40,998.99
2006,11,13,09,41,998.99
2006,11,13,09,42,998.99
2006,11,13,09,43,998.99
2006,11,13,09,44,998.99
2006,11,13,09,45,998.86
2006,11,13,09,46,998.85
2006,11,13,09,47,998.85
2006,11,13,09,48,998.85
2006,11,13,09,49,998.85
2006,11,13,09,50,998.85
2006,11,13,09,51,998.85
2006,11,13,09,52,998.85
2006,11,13,09,53,998.85
2006,11,13,09,54,998.85
2006,11,13,09,55,998.85
2006,11,13,09,56,998.85
2006,11,13,09,57,998.85
2006,11,13,09,58,998.85
2006,11,13,09,59,998.85
2006,11,13,10,00,999.12
2006,11,13,10,01,999.12
2006,11,13,10,02,999.12
2006,11,13,10,03,999.12
2006,11,13,10,04,999.12
2006,11,13,10,05,999.12
2006,11,13,10,06,999.12
2006,11,13,10,07,999.12
2006,11,13,10,08,999.12
2006,11,13,10,09,999.12
2006,11,13,10,10,999.12
2006,11,13,10,11,999.12
2006,11,13,10,12,999.12
2006,11,13,10,13,999.12
2006,11,13,10,14,999.12
2006,11,13,10,15,998.99
2006,11,13,10,16,998.99
2006,11,13,10,17,998.99
2006,11,13,10,18,998.99
2006,11,13,10,19,998.99
2006,11,13,10,20,998.99
2006,11,13,10,21,998.99
2006,11,13,10,22,998.99
2006,11,13,10,23,998.99
2006,11,13,10,24,998.99
2006,11,13,10,25,998.99
2006,11,13,10,26,998.99
2006,11,13,10,27,998.99
2006,11,13,10,28,998.99
2006,11,13,10,29,998.99
2006,11,13,10,30,999.36
2006,11,13,10,31,999.36
2006,11,13,10,32,999.36
2006,11,13,10,33,999.36
2006,11,13,10,34,999.36
2006,11,13,10,35,999.36
2006,11,13,10,36,999.36
2006,11,13,10,37,999.36
2006,11,13,10,38,999.36
2006,11,13,10,39,999.36
2006,11,13,10,40,999.36
2006,11,13,10,41,999.36
2006,11,13,10,42,999.36
2006,11,13,10,43,999.36
2006,11,13,10,44,999.36
2006,11,13,10,45,999.29
2006,11,13,10,46,999.29
2006,11,13,10,47,999.29
2006,11,13,10,48,999.29
2006,11,13,10,49,999.29
2006,11,13,10,50,999.29
2006,11,13,10,51,999.29
2006,11,13,10,52,999.29
2006,11,13,10,53,999.29
2006,11,13,10,54,999.29
2006,11,13,10,55,999.29
2006,11,13,10,56,999.29
2006,11,13,10,57,999.29
2006,11,13,10,58,999.29
2006,11,13,10,59,999.29
2006,11,13,11,00,999.32
2006,11,13,11,01,999.32
2006,11,13,11,02,999.32
2006,11,13,11,03,999.32
2006,11,13,11,04,999.32
2006,11,13,11,05,999.32
2006,11,13,11,06,999.32
2006,11,13,11,07,999.32
2006,11,13,11,08,999.32
2006,11,13,11,09,999.32
2006,11,13,11,10,999.32
2006,11,13,11,11,999.32
2006,11,13,11,12,999.32
2006,11,13,11,13,999.32
2006,11,13,11,14,999.32
2006,11,13,11,15,999.39
2006,11,13,11,16,999.39
2006,11,13,11,17,999.39
2006,11,13,11,18,999.39
2006,11,13,11,19,999.39
2006,11,13,11,20,999.39
2006,11,13,11,21,999.39
2006,11,13,11,22,999.39
2006,11,13,11,23,999.39
2006,11,13,11,24,999.39
2006,11,13,11,25,999.39
2006,11,13,11,26,999.39
2006,11,13,11,27,999.39
2006,11,13,11,28,999.39
2006,11,13,11,29,999.39
2006,11,13,11,30,999.36
2006,11,13,11,31,999.36
2006,11,13,11,32,999.36
2006,11,13,11,33,999.36
2006,11,13,11,34,999.36
2006,11,13,11,35,999.36
2006,11,13,11,36,999.36
2006,11,13,11,37,999.36
2006,11,13,11,38,999.36
2006,11,13,11,39,999.36
2006,11,13,11,40,999.36
2006,11,13,11,41,999.36
2006,11,13,11,42,999.36
2006,11,13,11,43,999.36
2006,11,13,11,44,999.36
2006,11,13,11,45,998.88
2006,11,13,11,46,998.85
2006,11,13,11,47,998.85
2006,11,13,11,48,998.85
2006,11,13,11,49,998.85
2006,11,13,11,50,998.85
2006,11,13,11,51,998.85
2006,11,13,11,52,998.85
2006,11,13,11,53,998.85
2006,11,13,11,54,998.85
2006,11,13,11,55,998.85
2006,11,13,11,56,998.85
2006,11,13,11,57,998.85
2006,11,13,11,58,998.85
2006,11,13,11,59,998.85
2006,11,13,12,00,998.85
2006,11,13,12,01,998.85
2006,11,13,12,02,998.85
2006,11,13,12,03,998.85
2006,11,13,12,04,998.85
2006,11,13,12,05,998.85
2006,11,13,12,06,998.85
2006,11,13,12,07,998.85
2006,11,13,12,08,998.85
2006,11,13,12,09,998.85
2006,11,13,12,10,998.85
2006,11,13,12,11,998.85
2006,11,13,12,12,998.85
2006,11,13,12,13,998.85
2006,11,13,12,14,998.85
2006,11,13,12,15,998.58
2006,11,13,12,16,998.58
2006,11,13,12,17,998.58
2006,11,13,12,18,998.58
2006,11,13,12,19,998.58
2006,11,13,12,20,998.58
2006,11,13,12,21,998.58
2006,11,13,12,22,998.58
2006,11,13,12,23,998.58
2006,11,13,12,24,998.58
2006,11,13,12,25,998.58
2006,11,13,12,26,998.58
2006,11,13,12,27,998.58
2006,11,13,12,28,998.58
2006,11,13,12,29,998.58
2006,11,13,12,30,998.10
2006,11,13,12,31,998.10
2006,11,13,12,32,998.10
2006,11,13,12,33,998.10
2006,11,13,12,34,998.10
2006,11,13,12,35,998.10
2006,11,13,12,36,998.10
2006,11,13,12,37,998.10
2006,11,13,12,38,998.10
2006,11,13,12,39,998.10
2006,11,13,12,40,998.10
2006,11,13,12,41,998.10
2006,11,13,12,42,998.10
2006,11,13,12,43,998.10
2006,11,13,12,44,998.10
2006,11,13,12,45,997.80
2006,11,13,12,46,997.80
2006,11,13,12,47,997.80
2006,11,13,12,48,997.80
2006,11,13,12,49,997.80
2006,11,13,12,50,997.80
2006,11,13,12,51,997.80
2006,11,13,12,52,997.80
2006,11,13,12,53,997.80
2006,11,13,12,54,997.80
2006,11,13,12,55,997.80
2006,11,13,12,56,997.80
2006,11,13,12,57,997.80
2006,11,13,12,58,997.80
2006,11,13,12,59,997.80
2006,11,13,13,00,997.80
2006,11,13,13,01,997.80
2006,11,13,13,02,997.80
2006,11,13,13,03,997.80
2006,11,13,13,04,997.80
2006,11,13,13,05,997.80
2006,11,13,13,06,997.80
2006,11,13,13,07,997.80
2006,11,13,13,08,997.80
2006,11,13,13,09,997.80
2006,11,13,13,10,997.80
2006,11,13,13,11,997.80
2006,11,13,13,12,997.80
2006,11,13,13,13,997.80
2006,11,13,13,14,997.80
2006,11,13,13,15,997.83
2006,11,13,13,16,997.83
2006,11,13,13,17,997.83
2006,11,13,13,18,997.83
2006,11,13,13,19,997.83
2006,11,13,13,20,997.83
2006,11,13,13,21,997.83
2006,11,13,13,22,997.83
2006,11,13,13,23,997.83
2006,11,13,13,24,997.83
2006,11,13,13,25,997.83
2006,11,13,13,26,997.83
2006,11,13,13,27,997.83
2006,11,13,13,28,997.83
2006,11,13,13,29,997.83
2006,11,13,13,30,997.73
2006,11,13,13,31,997.73
2006,11,13,13,32,997.73
2006,11,13,13,33,997.73
2006,11,13,13,34,997.73
2006,11,13,13,35,997.73
2006,11,13,13,36,997.73
2006,11,13,13,37,997.73
2006,11,13,13,38,997.73
2006,11,13,13,39,997.73
2006,11,13,13,40,997.73
2006,11,13,13,41,997.73
2006,11,13,13,42,997.73
2006,11,13,13,43,997.73
2006,11,13,13,44,997.73
2006,11,13,13,45,997.83
2006,11,13,13,46,997.83
2006,11,13,13,47,997.83
2006,11,13,13,48,997.83
2006,11,13,13,49,997.83
2006,11,13,13,50,997.83
2006,11,13,13,51,997.83
2006,11,13,13,52,997.83
2006,11,13,13,53,997.83
2006,11,13,13,54,997.83
2006,11,13,13,55,997.83
2006,11,13,13,56,997.83
2006,11,13,13,57,997.83
2006,11,13,13,58,997.83
2006,11,13,13,59,997.83
2006,11,13,14,00,997.80
2006,11,13,14,01,997.80
2006,11,13,14,02,997.80
2006,11,13,14,03,997.80
2006,11,13,14,04,997.80
2006,11,13,14,05,997.80
2006,11,13,14,06,997.80
2006,11,13,14,07,997.80
2006,11,13,14,08,997.80
2006,11,13,14,09,997.80
2006,11,13,14,10,997.80
2006,11,13,14,11,997.80
2006,11,13,14,12,997.80
2006,11,13,14,13,997.80
2006,11,13,14,14,997.80
2006,11,13,14,15,997.16
2006,11,13,14,16,997.16
2006,11,13,14,17,997.16
2006,11,13,14,18,997.16
2006,11,13,14,19,997.16
2006,11,13,14,20,997.16
2006,11,13,14,21,997.16
2006,11,13,14,22,997.16
2006,11,13,14,23,997.16
2006,11,13,14,24,997.16
2006,11,13,14,25,997.16
2006,11,13,14,26,997.16
2006,11,13,14,27,997.16
2006,11,13,14,28,997.16
2006,11,13,14,29,997.16
2006,11,13,14,30,996.86
2006,11,13,14,31,996.85
2006,11,13,14,32,996.85
2006,11,13,14,33,996.85
2006,11,13,14,34,996.85
2006,11,13,14,35,996.85
2006,11,13,14,36,996.85
2006,11,13,14,37,996.85
2006,11,13,14,38,996.85
2006,11,13,14,39,996.85
2006,11,13,14,40,996.85
2006,11,13,14,41,996.85
2006,11,13,14,42,996.85
2006,11,13,14,43,996.85
2006,11,13,14,44,996.85
2006,11,13,14,45,997.02
2006,11,13,14,46,997.02
2006,11,13,14,47,997.02
2006,11,13,14,48,997.02
2006,11,13,14,49,997.02
2006,11,13,14,50,997.02
2006,11,13,14,51,997.02
2006,11,13,14,52,997.02
2006,11,13,14,53,997.02
2006,11,13,14,54,997.02
2006,11,13,14,55,997.02
2006,11,13,14,56,997.02
2006,11,13,14,57,997.02
2006,11,13,14,58,997.02
2006,11,13,14,59,997.02
2006,11,13,15,00,997.26
2006,11,13,15,01,997.26
2006,11,13,15,02,997.26
2006,11,13,15,03,997.26
2006,11,13,15,04,997.26
2006,11,13,15,05,997.26
2006,11,13,15,06,997.26
2006,11,13,15,07,997.26
2006,11,13,15,08,997.26
2006,11,13,15,09,997.26
2006,11,13,15,10,997.26
2006,11,13,15,11,997.26
2006,11,13,15,12,997.26
2006,11,13,15,13,997.26
2006,11,13,15,14,997.26
2006,11,13,15,15,997.29
2006,11,13,15,16,997.29
2006,11,13,15,17,997.29
2006,11,13,15,18,997.29
2006,11,13,15,19,997.29
2006,11,13,15,20,997.29
2006,11,13,15,21,997.29
2006,11,13,15,22,997.29
2006,11,13,15,23,997.29
2006,11,13,15,24,997.29
2006,11,13,15,25,997.29
2006,11,13,15,26,997.29
2006,11,13,15,27,997.29
2006,11,13,15,28,997.29
2006,11,13,15,29,997.29
2006,11,13,15,30,997.36
2006,11,13,15,31,997.36
2006,11,13,15,32,997.36
2006,11,13,15,33,997.36
2006,11,13,15,34,997.36
2006,11,13,15,35,997.36
2006,11,13,15,36,997.36
2006,11,13,15,37,997.36
2006,11,13,15,38,997.36
2006,11,13,15,39,997.36
2006,11,13,15,40,997.36
2006,11,13,15,41,997.36
2006,11,13,15,42,997.36
2006,11,13,15,43,997.36
2006,11,13,15,44,997.36
2006,11,13,15,45,997.77
2006,11,13,15,46,997.77
2006,11,13,15,47,997.77
2006,11,13,15,48,997.77
2006,11,13,15,49,997.77
2006,11,13,15,50,997.77
2006,11,13,15,51,997.77
2006,11,13,15,52,997.77
2006,11,13,15,53,997.77
2006,11,13,15,54,997.77
2006,11,13,15,55,997.77
2006,11,13,15,56,997.77
2006,11,13,15,57,997.77
2006,11,13,15,58,997.77
2006,11,13,15,59,997.77
2006,11,13,16,00,997.53
2006,11,13,16,01,997.53
2006,11,13,16,02,997.53
2006,11,13,16,03,997.53
2006,11,13,16,04,997.53
2006,11,13,16,05,997.53
2006,11,13,16,06,997.53
2006,11,13,16,07,997.53
2006,11,13,16,08,997.53
2006,11,13,16,09,997.53
2006,11,13,16,10,997.53
2006,11,13,16,11,997.53
2006,11,13,16,12,997.53
2006,11,13,16,13,997.53
2006,11,13,16,14,997.53
2006,11,13,16,15,997.60
2006,11,13,16,16,997.60
2006,11,13,16,17,997.60
2006,11,13,16,18,997.60
2006,11,13,16,19,997.60
2006,11,13,16,20,997.60
2006,11,13,16,21,997.60
2006,11,13,16,22,997.60
2006,11,13,16,23,997.60
2006,11,13,16,24,997.60
2006,11,13,16,25,997.60
2006,11,13,16,26,997.60
2006,11,13,16,27,997.60
2006,11,13,16,28,997.60
2006,11,13,16,29,997.60
2006,11,13,16,30,997.26
2006,11,13,16,31,997.26
2006,11,13,16,32,997.26
2006,11,13,16,33,997.26
2006,11,13,16,34,997.26
2006,11,13,16,35,997.26
2006,11,13,16,36,997.26